BRITE-AUSTRIA

Last updated on Wed Oct 29 2025 00:03:35 GMT+0000 (Coordinated Universal Time)

1 39091U 13009F 25301.46649747 .00000382 00000+0 14488-3 0 9993 2 39091 98.3907 121.7524 0009628 206.5740 153.4954 14.36396033663780
UTC large
Height (km)
Speed (km/s)
/
Latitude / Longitude
Inclination (degrees)
Orbital Period (minutes)
Azimuth
Elevation
Range (km)
Doppler Factor

Next 0 passes for location: London (51.5072 / 0.1276)

Sorry there are no passes over London.